Regional Weather Roundup
Issued by NWS

Home | Current Version | Previous Version | Text Only | Print | Product List | Glossary On
Versions: 1 2 3 4 5 6 7 8 9 10 11 12 13 14 15 16 17 18 19 20 21 22 23 24 25 26 27 28 29 30 31 32 33 34 35 36 37 38 39 40 41 42 43 44 45 46 47 48 49 50
000
ASUS43 KLSX 250310
RWRMO

WEATHER SUMMARY FOR MISSOURI
NATIONAL WEATHER SERVICE SPRINGFIELD MO
1000 PM CDT SAT JUN 24 2017

NOTE: "FAIR" INDICATES FEW OR NO CLOUDS BELOW 12,000 FEET WITH NO
       SIGNIFICANT WEATHER AND/OR OBSTRUCTIONS TO VISIBILITY.
       CURRENT SKY AND/OR WEATHER CONDITIONS ARE NOT AVAILABLE FOR
       CHILLICOTHE AND FARMINGTON.

MOZ001>031-035>038-043-044-053-054-250400-
...NORTHERN AND WESTERN MISSOURI...

CITY           SKY/WX    TMP DP  RH WIND       PRES   REMARKS
KANSAS CTY INT MOCLDY    67  50  54 SW5       30.18R
KANSAS C DTWN  PTCLDY    73  47  39 SW6       30.17R
LEE`S SUMMIT   CLOUDY    71  48  43 SW3       30.19R
ST JOSEPH      CLOUDY    69  51  52 W7        30.16R
CHILLICOTHE      N/A     64  53  67 CALM      30.16R
KIRKSVILLE     CLEAR     65  47  52 SW5       30.14R

$$
MOZ066>068-077>081-088>096-101>105-250400-
...SOUTHWEST MISSOURI...

CITY           SKY/WX    TMP DP  RH WIND       PRES   REMARKS
SPRINGFIELD    CLEAR     65  55  70 CALM      30.22R
JOPLIN         PTCLDY    65  55  70 NE3       30.22R
BRANSON        CLEAR     63  55  77 CALM      30.24R

$$
MOZ032>034-039>042-045>050-055>058-069>072-250400-
...CENTRAL MISSOURI...

CITY           SKY/WX    TMP DP  RH WIND       PRES   REMARKS
COLUMBIA       CLOUDY    66  54  65 S3        30.18R
JEFFERSON CITY CLOUDY    66  49  54 CALM      30.18R
ROLLA          CLEAR     59  49  69 CALM      30.20R
SEDALIA        MOCLDY    67  51  56 SW6       30.19R
WARRENSBURG    CLOUDY    64  52  63 S5        30.18R
OSAGE BEACH    CLEAR     62  53  72 CALM      30.21R

$$
MOZ051-052-059>065-250400-
...EAST CENTRAL MISSOURI...

CITY           SKY/WX    TMP DP  RH WIND       PRES   REMARKS
ST LOUIS INTL  PTCLDY    70  46  42 SW3       30.18R
SPIRIT OF STL  PTCLDY    63  52  67 CALM      30.17R
ST CHARLES     CLEAR     65  49  56 SW5       30.16R

$$
MOZ072>076-082>087-097>100-106>115-250400-
...SOUTH CENTRAL AND SOUTHEAST MISSOURI...

CITY           SKY/WX    TMP DP  RH WIND       PRES   REMARKS
CAPE GIRARDEAU CLOUDY    65  62  90 CALM      30.16R
FARMINGTON     CLEAR     63  51  65 CALM      30.21R
POPLAR BLUFF   CLOUDY    67  65  93 CALM      30.17R
WEST PLAINS    PTCLDY    68  50  52 CALM      30.22R

$$



USA.gov is the U.S. government's official web portal to all federal, state and local government web resources and services.